Location: Unspecified
(0.0000°N, 0.0000°E)
Time: 17:27:01
(UTC+02:00)

Iridium 12 - Visible Passes

Search period start: 17 April 2014 00:00
Search period end: 27 April 2014 00:00
Orbit: 776 x 779 km, 86.4° (Epoch: 17 April)

Date Brightness Start Highest point End Pass type
(mag) Time Alt. Az. Time Alt. Az. Time Alt. Az.
17 Apr 7.0 07:22:39 10° NNE 07:27:32 42° E 07:32:25 10° SSE visible
18 Apr 8.4 06:50:29 10° NE 06:54:05 19° E 06:57:41 10° SE visible
19 Apr 8.5 20:31:03 10° SW 20:34:36 19° W 20:38:09 10° NW visible
20 Apr 6.0 07:22:26 10° N 07:27:36 69° E 07:32:47 10° S visible
21 Apr 7.5 06:49:38 10° NNE 06:54:09 30° E 06:58:41 10° SSE visible
22 Apr 8.6 06:18:10 10° ENE 06:20:42 14° E 06:23:14 10° ESE visible
22 Apr 9.1 20:33:17 10° WSW 20:34:40 11° W 20:36:02 10° WNW visible
23 Apr 5.5 07:22:29 10° N 07:27:39 73° W 07:32:51 10° S visible
24 Apr 6.5 06:49:12 10° NNE 06:54:12 50° E 06:59:14 10° SSE visible
25 Apr 7.9 06:16:46 10° NE 06:20:45 22° E 06:24:45 10° SE visible
26 Apr 5.8 07:22:48 10° NNW 07:27:43 44° W 07:32:40 10° SSW visible
